[[{"header":{"parameterUnit":"m.s-1","parameterCategory":1,"la1":30.2991,"la2":30.254,"lo1":-89.0895,"lo2":-89.0444,"dy":0.0017,"dx":0.0017,"nx":28,"ny":28,"refTime":"2023-09-05T09:00:00:Z","depth":0,"parameterNumber":2,"parameterNumberName":"U-component_of_WINDS"},"data":[0,0,0,0,0,0,0,0,0,0,0,0,0,0,0,0,0,0,0,0,0,0,0,0,0,0,0,0,0,0,0,0,0,0,0,0,0,0,0,0,0,0,0,0,0,0,0,0,0,0,0,0,0,0,0,0,0,0,-1.8399,-1.8398,0,-1.8308,-1.8307,-1.8306,-1.8232,-1.8231,-1.823,-1.823,-1.8135,-1.8133,-1.8131,0,0,0,0,0,0,0,0,0,0,0,0,0,-1.851,-1.8508,-1.8399,-1.8398,-1.8397,-1.8308,-1.8307,-1.8305,-1.8232,-1.8231,-1.823,-1.8229,-1.8135,-1.8133,-1.8131,0,0,0,0,0,0,0,0,0,0,0,0,0,-1.8444,-1.8508,-1.8399,-1.835,-1.8344,-1.8308,-1.8307,-1.8305,-1.8232,-1.8231,-1.823,-1.8229,-1.8136,-1.8133,-1.8131,-1.8136,0,0,-1.8122,-1.8121,0,0,0,0,0,0,0,0,-1.8448,-1.844,-1.8358,-1.8353,-1.8347,-1.828,-1.8311,-1.8248,-1.8233,-1.8275,-1.823,-1.8228,-1.8184,-1.8177,-1.8162,-1.8131,-1.8127,-1.8122,-1.812,-1.8119,-1.8118,0,0,0,0,0,0,0,-1.8453,-1.8444,-1.8363,-1.8357,-1.835,-1.8332,-1.8321,-1.8298,-1.8237,-1.8271,-1.8265,-1.8256,-1.8181,-1.8165,-1.816,-1.8126,-1.8122,-1.8119,-1.8118,-1.8117,-1.8096,-1.8097,0,0,0,0,0,0,-1.8465,-1.8448,-1.8366,-1.836,-1.8396,-1.8331,-1.8319,-1.8303,-1.8237,-1.8226,-1.8257,-1.8253,-1.817,-1.8163,-1.8156,-1.8158,-1.8119,-1.8116,-1.8115,-1.8095,-1.8096,-1.8097,0,0,0,0,0,0,-1.8468,-1.8459,-1.8369,-1.8403,-1.839,-1.833,-1.8312,-1.8301,-1.8286,-1.8226,-1.8214,-1.8252,-1.8169,-1.816,-1.8142,-1.8154,-1.8115,-1.8113,-1.8093,-1.8095,-1.8097,-1.8162,0,0,0,0,0,0,-1.8471,-1.846,-1.8461,-1.8403,-1.8388,-1.8357,-1.8313,-1.83,-1.8282,-1.8275,-1.8219,-1.8208,-1.8168,-1.8146,-1.8139,-1.8149,-1.811,-1.8092,-1.8094,-1.8096,-1.8159,-1.8166,-1.8172,0,0,0,0,0,-1.8476,-1.8483,-1.8462,-1.8452,-1.8389,-1.8358,-1.8349,-1.8303,-1.8283,-1.8284,-1.8246,-1.821,-1.8154,-1.8145,-1.8136,-1.8146,-1.8091,-1.8094,-1.8096,-1.8156,-1.8165,-1.8172,0,0,0,0,0,0,-1.8543,-1.8474,-1.845,-1.8439,-1.8405,-1.8346,-1.8345,-1.8314,-1.8284,-1.8279,-1.8222,-1.821,-1.8198,-1.817,-1.8162,-1.8148,-1.8118,-1.8119,-1.8167,-1.8174,-1.8181,-1.8187,-1.8108,0,0,0,0,0,-1.8557,-1.8537,-1.8478,-1.8474,-1.8459,-1.8405,-1.839,-1.8357,-1.8319,-1.8304,-1.8265,-1.8229,-1.8203,-1.8188,-1.8161,-1.8155,-1.8142,-1.8158,-1.8164,-1.817,-1.8171,-1.8167,-1.8173,-1.8105,-1.8105,-1.8105,0,0,-1.8584,-1.8545,-1.8536,-1.8487,-1.8457,-1.8438,-1.8393,-1.8375,-1.8361,-1.8301,-1.8282,-1.8252,-1.8209,-1.8197,-1.819,-1.8173,-1.8187,-1.8173,-1.8178,-1.8176,-1.817,-1.8176,-1.8182,-1.8107,-1.8107,-1.8107,0,0,-1.8625,-1.8593,-1.8586,-1.8558,-1.8513,-1.8478,-1.8477,-1.8422,-1.84,-1.838,-1.8336,-1.8318,-1.8275,-1.8246,-1.8225,-1.8258,-1.8224,-1.8251,-1.8285,-1.8282,-1.8287,-1.8292,-1.8303,-1.8308,-1.8252,-1.8253,-1.8253,0,-1.8665,-1.8635,-1.8587,-1.8572,-1.8552,-1.8499,-1.8492,-1.8466,-1.8415,-1.8402,-1.8384,-1.833,-1.8297,-1.8278,-1.8287,-1.8272,-1.8269,-1.8256,-1.829,-1.8294,-1.8298,-1.8308,-1.8312,-1.8256,-1.8256,-1.8255,-1.8255,0,-1.8686,-1.8667,-1.8666,-1.8619,-1.8599,-1.8589,-1.8539,-1.8525,-1.8495,-1.8461,-1.8442,-1.8401,-1.8365,-1.8359,-1.8329,-1.8336,-1.8327,-1.8301,-1.8269,-1.8308,-1.8317,-1.8321,-1.8261,-1.826,-1.8259,-1.8258,0,0,-1.8765,-1.8693,-1.8693,-1.8672,-1.862,-1.8603,-1.8591,-1.8556,-1.8545,-1.8512,-1.85,-1.8466,-1.8442,-1.8419,-1.8385,-1.8383,-1.8411,-1.8356,-1.8354,-1.8368,-1.8417,-1.8437,-1.8442,-1.8389,-1.839,-1.839,-1.8421,0,-1.8797,-1.877,-1.8728,-1.8715,-1.8697,-1.8647,-1.8636,-1.8603,-1.8572,-1.8552,-1.8518,-1.8495,-1.8465,-1.8451,-1.8446,-1.8409,-1.842,-1.8406,-1.8377,-1.8376,-1.8388,-1.8447,-1.8467,-1.8497,-1.8424,-1.8424,-1.8425,0,-1.883,-1.8801,-1.8787,-1.8737,-1.8728,-1.8719,-1.8684,-1.8666,-1.8628,-1.8606,-1.8582,-1.8546,-1.853,-1.8502,-1.848,-1.8471,-1.8457,-1.8438,-1.8438,-1.8432,-1.8402,-1.8442,-1.8506,-1.851,-1.843,-1.8429,-1.8429,0,-1.8888,-1.8846,-1.8832,-1.8815,-1.8757,-1.8752,-1.8727,-1.8688,-1.8671,-1.8641,-1.8629,-1.8598,-1.8581,-1.8558,-1.8515,-1.8499,-1.8497,-1.8466,-1.8478,-1.8479,-1.8478,-1.8479,-1.854,-1.8471,-1.8471,-1.8471,-1.8471,0,-1.8928,-1.8921,-1.8858,-1.8849,-1.8841,-1.8792,-1.8785,-1.8756,-1.8722,-1.8707,-1.8663,-1.865,-1.8594,-1.8575,-1.8541,-1.8527,-1.852,-1.8502,-1.8492,-1.8505,-1.8507,-1.8494,-1.849,-1.8472,-1.8472,-1.8472,-1.8472,0,-1.8991,-1.8948,-1.893,-1.8877,-1.8864,-1.886,-1.8814,-1.8804,-1.8772,-1.8754,-1.8747,-1.8696,-1.8671,-1.8626,-1.8588,-1.8565,-1.8559,-1.8543,-1.8572,-1.8566,-1.858,-1.858,-1.8634,-1.8639,-1.8568,-1.8569,-1.857,0,-1.9018,-1.9012,-1.8959,-1.8946,-1.8924,-1.8904,-1.8886,-1.8839,-1.8822,-1.8779,-1.8775,-1.8747,-1.8722,-1.8684,-1.8644,-1.8615,-1.8598,-1.8619,-1.8593,-1.8606,-1.8598,-1.8598,-1.8598,-1.8625,-1.8626,-1.8627,-1.8627,0,-1.9072,-1.9051,-1.9028,-1.8997,-1.8978,-1.8952,-1.8923,-1.8915,-1.8861,-1.8845,-1.882,-1.88,-1.8763,-1.8735,-1.8701,-1.8675,-1.8643,-1.8636,-1.8638,-1.865,-1.8666,-1.8657,-1.8587,-1.8635,-1.8634,-1.8634,-1.8633,-1.8633,-1.9117,-1.911,-1.9072,-1.9047,-1.9021,-1.8996,-1.8984,-1.8951,-1.8929,-1.8895,-1.8868,-1.8845,-1.8808,-1.8759,-1.8736,-1.8717,-1.8701,-1.8703,-1.8704,-1.8705,-1.871,-1.867,-1.8711,-1.871,-1.871,-1.871,-1.871,0,-1.9168,-1.9141,-1.912,-1.9082,-1.9063,-1.9035,-1.9002,-1.8988,-1.8968,-1.8937,-1.8914,-1.8885,-1.8859,-1.8817,-1.8788,-1.8781,-1.8765,-1.8775,-1.8774,-1.8769,-1.8725,-1.8727,-1.8788,-1.8788,-1.8788,-1.8788,-1.8788,-1.8788,-1.9192,-1.9178,-1.9154,-1.9127,-1.91,-1.9077,-1.9061,-1.9038,-1.9013,-1.8983,-1.8961,-1.8935,-1.8899,-1.8867,-1.8842,-1.883,-1.8821,-1.8836,-1.882,-1.8779,-1.8772,-1.8765,-1.8766,-1.8834,-1.8834,-1.8865,-1.8865,-1.8865]},{"header":{"parameterUnit":"m.s-1","parameterCategory":1,"la1":30.2991,"la2":30.254,"lo1":-89.0895,"lo2":-89.0444,"dy":0.0017,"dx":0.0017,"nx":28,"ny":28,"refTime":"2023-09-05T09:00:00:Z","depth":0,"parameterNumber":3,"parameterNumberName":"V-component_of_WINDS"},"data":[0,0,0,0,0,0,0,0,0,0,0,0,0,0,0,0,0,0,0,0,0,0,0,0,0,0,0,0,0,0,0,0,0,0,0,0,0,0,0,0,0,0,0,0,0,0,0,0,0,0,0,0,0,0,0,0,0,0,2.4872,2.4874,0,2.4977,2.4978,2.4979,2.5022,2.5022,2.5022,2.5021,2.5126,2.5129,2.5132,0,0,0,0,0,0,0,0,0,0,0,0,0,2.4709,2.4712,2.4872,2.4874,2.4875,2.4977,2.4978,2.4979,2.5022,2.5022,2.5021,2.5021,2.5125,2.5128,2.5132,0,0,0,0,0,0,0,0,0,0,0,0,0,2.4793,2.4713,2.4872,2.4909,2.4913,2.4976,2.4978,2.498,2.5022,2.5022,2.5021,2.5021,2.5124,2.5128,2.5132,2.5167,0,0,2.5146,2.5148,0,0,0,0,0,0,0,0,2.4789,2.4799,2.4902,2.4906,2.4911,2.4986,2.4959,2.5042,2.5022,2.498,2.5021,2.5021,2.5079,2.5088,2.5108,2.5172,2.5176,2.5147,2.5149,2.5151,2.5152,0,0,0,0,0,0,0,2.4783,2.4795,2.4914,2.4903,2.4909,2.4919,2.4931,2.4975,2.503,2.4984,2.4987,2.4999,2.5082,2.5103,2.511,2.5178,2.5146,2.515,2.5153,2.5155,2.5277,2.5277,0,0,0,0,0,0,2.4771,2.479,2.491,2.4917,2.4848,2.4923,2.4936,2.4962,2.503,2.504,2.5,2.5001,2.5096,2.5105,2.5114,2.516,2.5151,2.5155,2.5158,2.5276,2.5277,2.5278,0,0,0,0,0,0,2.4767,2.4781,2.4906,2.4854,2.4871,2.4926,2.4955,2.4964,2.4986,2.5042,2.5052,2.5011,2.5096,2.5108,2.5154,2.5164,2.5157,2.5161,2.5276,2.5276,2.5277,2.5251,0,0,0,0,0,0,2.4763,2.478,2.4793,2.4854,2.4874,2.4944,2.4956,2.4967,2.4994,2.4997,2.5055,2.5065,2.5097,2.5147,2.5158,2.517,2.5165,2.5275,2.5276,2.5277,2.5251,2.5251,2.5251,0,0,0,0,0,2.4757,2.4781,2.4794,2.4808,2.4892,2.4945,2.4956,2.4992,2.4995,2.5009,2.5045,2.5063,2.5161,2.5151,2.5165,2.5178,2.5274,2.5276,2.5277,2.5251,2.5251,2.5251,0,0,0,0,0,0,2.4718,2.479,2.4805,2.485,2.4891,2.4952,2.497,2.499,2.5031,2.5032,2.5075,2.5088,2.5131,2.5159,2.5146,2.5216,2.5219,2.5223,2.5195,2.5196,2.5195,2.5187,2.5169,0,0,0,0,0,2.4716,2.4753,2.4813,2.4846,2.4867,2.4915,2.4939,2.4964,2.5008,2.5026,2.5065,2.5107,2.5148,2.5173,2.5213,2.5256,2.527,2.5272,2.5271,2.5271,2.5273,2.5299,2.5301,2.5282,2.5282,2.5282,0,0,2.4709,2.4753,2.4773,2.484,2.4875,2.4913,2.4929,2.4968,2.4996,2.5031,2.5078,2.5108,2.5158,2.5202,2.5224,2.5227,2.5282,2.5272,2.5271,2.5275,2.5301,2.5303,2.5304,2.5282,2.5282,2.5282,0,0,2.4717,2.4754,2.4787,2.4822,2.4875,2.4908,2.4915,2.4974,2.4996,2.5043,2.5071,2.5105,2.5174,2.5209,2.5235,2.5259,2.5277,2.5271,2.5269,2.5293,2.5295,2.5296,2.5306,2.5308,2.5273,2.5273,2.5273,0,2.4702,2.4761,2.4801,2.4839,2.4868,2.4903,2.4937,2.4969,2.5032,2.5051,2.5054,2.5142,2.5178,2.5232,2.5238,2.5258,2.5269,2.5264,2.5292,2.5294,2.5296,2.5305,2.5308,2.5272,2.5272,2.5272,2.5272,0,2.474,2.4781,2.4801,2.4863,2.4894,2.4929,2.4975,2.5002,2.5024,2.5056,2.5105,2.5149,2.52,2.5215,2.5236,2.5272,2.5273,2.5283,2.5288,2.5296,2.5305,2.5309,2.527,2.5271,2.5271,2.5271,0,0,2.4726,2.4811,2.4818,2.4847,2.4909,2.4941,2.4979,2.5029,2.5052,2.5095,2.5128,2.5186,2.5197,2.5227,2.5253,2.5275,2.5292,2.5283,2.5285,2.5283,2.5335,2.5327,2.533,2.5305,2.5306,2.5306,2.5331,0,2.4743,2.4812,2.485,2.4904,2.4942,2.4977,2.501,2.5052,2.5083,2.512,2.5154,2.5195,2.5206,2.5225,2.5248,2.5285,2.5303,2.5284,2.5336,2.5337,2.5322,2.5335,2.5326,2.5348,2.5335,2.5336,2.5336,0,2.4771,2.4815,2.4873,2.4932,2.495,2.4979,2.5029,2.5064,2.5112,2.5134,2.5169,2.5195,2.5237,2.5239,2.5297,2.5283,2.5307,2.5328,2.533,2.5336,2.5337,2.5342,2.5355,2.5358,2.5342,2.5342,2.5341,0,2.4755,2.4829,2.4873,2.4897,2.4968,2.4987,2.5018,2.5066,2.5095,2.5139,2.5158,2.5206,2.5232,2.5268,2.5307,2.5305,2.5362,2.5366,2.5381,2.538,2.539,2.5389,2.5408,2.5406,2.5406,2.5405,2.5405,0,2.477,2.4804,2.4868,2.4895,2.4934,2.4978,2.5016,2.5049,2.5092,2.5126,2.5159,2.5191,2.524,2.5278,2.5309,2.5353,2.5364,2.5383,2.539,2.538,2.5378,2.5396,2.5395,2.5406,2.5406,2.5406,2.5406,0,2.4759,2.4803,2.4854,2.4917,2.4934,2.496,2.5015,2.5043,2.5076,2.512,2.5132,2.5185,2.5232,2.5275,2.5336,2.5357,2.5401,2.5411,2.5385,2.5389,2.5401,2.5399,2.5432,2.5439,2.5431,2.5431,2.5431,0,2.4765,2.4793,2.486,2.4886,2.4916,2.4957,2.4987,2.5031,2.5061,2.5119,2.514,2.519,2.5231,2.5304,2.5347,2.5395,2.5406,2.5415,2.5414,2.5403,2.5407,2.5405,2.5408,2.5414,2.5414,2.5413,2.5413,0,2.4773,2.4793,2.4836,2.4886,2.4921,2.4963,2.5005,2.5024,2.5077,2.5109,2.5157,2.519,2.5254,2.5302,2.5355,2.5386,2.5409,2.5414,2.542,2.5409,2.5393,2.5402,2.5383,2.5412,2.5413,2.5413,2.5413,2.5413,2.4771,2.4797,2.4849,2.4895,2.4933,2.4972,2.5002,2.504,2.5082,2.5138,2.5162,2.5211,2.526,2.5334,2.5365,2.5404,2.5409,2.5417,2.5419,2.5421,2.5419,2.5387,2.5414,2.5414,2.5414,2.5414,2.5414,0,2.478,2.4816,2.4858,2.4917,2.4954,2.4973,2.5022,2.5051,2.5094,2.5139,2.518,2.5236,2.5284,2.5332,2.5383,2.5405,2.5417,2.5417,2.5415,2.5422,2.5412,2.5402,2.5406,2.5406,2.5406,2.5406,2.5406,2.5406,2.4789,2.4836,2.4863,2.4928,2.4963,2.5013,2.5039,2.5076,2.5112,2.5173,2.5214,2.5245,2.5292,2.5346,2.5391,2.5404,2.5421,2.5418,2.5434,2.5423,2.5423,2.5423,2.5414,2.5422,2.5422,2.5442,2.5442,2.5442]}]]